Sisseton, SD

11:11 PM CDT on April 23, 2017 (GMT -0500)
Sisseton

Weather History for K8D3 - April, 2014

Change the Weather History Date:

Monday, April 28, 2014

  Actual Average Record
Temperature  
Mean Temperature 40 °F 50 °F  
Max Temperature 42 °F 63 °F 90 °F (1934)
Min Temperature 38 °F 38 °F 21 °F (1958)
Degree Days  
Heating Degree Days 25 15  
Month to date heating degree days 680 589  
Since 1 July heating degree days 8696 7931  
Cooling Degree Days 0 0  
Month to date cooling degree days 0 0  
Year to date cooling degree days 0 0  
Moisture  
Dew Point 40 °F    
Average Humidity 95    
Maximum Humidity 100    
Minimum Humidity 89    
Precipitation  
Precipitation 0.87 in 0.12 in 0.89 in (1901)
Month to date precipitation 3.05 1.99  
Year to date precipitation 4.51 3.97  
Snow  
Snow 0.00 in - - ()
Month to date snowfall 6.4  
Since 1 July snowfall 37.8  
Snow Depth 0.00 in    
Sea Level Pressure  
Sea Level Pressure 29.63 in    
Wind  
Wind Speed 15 mph (ESE)    
Max Wind Speed 22 mph    
Max Gust Speed 28 mph    
T = Trace of Precipitation, MM = Missing Value Source: NWS Daily Summary

Daily Weather History Graph

Daily Weather History Graph

Search for Another Location

Airport or City:

Trip Planner

Search our weather history database for the weather conditions in past years. The results will help you decide how hot, cold, wet, or windy it might be!

Date:

Astronomy

Apr. 28, 2014 Rise Set
Actual Time 6:20 AM CDT 8:31 PM CDT
Civil Twilight 5:47 AM CDT 9:04 PM CDT
Nautical Twilight 5:07 AM CDT 9:44 PM CDT
Astronomical Twilight 4:22 AM CDT 10:29 PM CDT
Moon 6:02 AM CDT (4/28) 8:09 PM CDT (4/28)
Length of Visible Light 15h 16m
Length of Day
14h 11m
Waning Crescent, 0% of the Moon is Illuminated
Apr 28
Waning Crescent
Apr 29
New
May 6
First Quarter
May 14
Full
May 21
Last Quarter

Hourly Weather History & Observations

Time (CDT) Temp. Windchill Dew Point Humidity Pressure Visibility Wind Dir Wind Speed Gust Speed Precip Events Conditions
12:56 AM 39.9 °F 30.8 °F 39.0 °F 97% 29.57 in - SE 18.4 mph - N/A   Unknown
1:56 AM 39.9 °F 32.1 °F 39.0 °F 97% 29.59 in - SE 13.8 mph - N/A   Unknown
2:56 AM 39.9 °F 31.8 °F 39.0 °F 97% 29.58 in - SE 15.0 mph - N/A   Unknown
3:56 AM 39.9 °F 33.4 °F 39.0 °F 97% 29.57 in - ESE 10.4 mph - N/A   Unknown
4:56 AM 41.0 °F 32.5 °F 39.0 °F 93% 29.55 in - ESE 17.3 mph - N/A   Unknown
5:56 AM 41.0 °F 34.3 °F 41.0 °F 100% 29.57 in - SE 11.5 mph 20.7 mph N/A   Unknown
6:56 AM 41.0 °F 32.5 °F 39.9 °F 96% 29.57 in - ESE 17.3 mph 25.3 mph 0.08 in   Unknown
7:56 AM 41.0 °F 33.1 °F 39.9 °F 96% 29.58 in - ESE 15.0 mph - 0.06 in   Unknown
8:56 AM 39.9 °F 31.1 °F 39.0 °F 97% 29.59 in - ESE 17.3 mph - 0.05 in   Unknown
9:56 AM 39.9 °F 32.5 °F 39.9 °F 100% 29.58 in - ESE 12.7 mph - 0.08 in   Unknown
10:56 AM 41.0 °F 33.1 °F 39.9 °F 96% 29.59 in - ESE 15.0 mph - 0.05 in   Unknown
11:56 AM 41.0 °F 33.5 °F 39.9 °F 96% 29.58 in - ESE 13.8 mph - 0.12 in   Unknown
12:56 PM 42.1 °F 34.2 °F 41.0 °F 96% 29.59 in - SE 16.1 mph 23.0 mph 0.08 in   Unknown
1:56 PM 42.1 °F 33.3 °F 41.0 °F 96% 29.59 in - SE 19.6 mph 26.5 mph 0.06 in   Unknown
2:56 PM 42.1 °F 33.6 °F 39.9 °F 92% 29.59 in - ESE 18.4 mph - 0.02 in   Unknown
3:56 PM 42.1 °F 33.6 °F 41.0 °F 96% 29.61 in - SE 18.4 mph - 0.01 in   Unknown
4:56 PM 42.1 °F 33.6 °F 39.9 °F 92% 29.64 in - SE 18.4 mph - N/A   Unknown
5:56 PM 41.0 °F 33.9 °F 39.9 °F 96% 29.65 in - East 12.7 mph - 0.01 in   Unknown
6:56 PM 41.0 °F 34.3 °F 39.9 °F 96% 29.68 in - ESE 11.5 mph - 0.08 in   Unknown
7:56 PM 42.1 °F 36.1 °F 39.9 °F 92% 29.71 in - ESE 10.4 mph - 0.01 in   Unknown
8:56 PM 42.1 °F 36.1 °F 39.9 °F 92% 29.74 in - ESE 10.4 mph - 0.01 in   Unknown
9:56 PM 41.0 °F 33.9 °F 39.9 °F 96% 29.76 in - East 12.7 mph - 0.03 in   Unknown
10:56 PM 39.0 °F 30.6 °F 39.0 °F 100% 29.79 in - ENE 15.0 mph - 0.08 in   Unknown
11:56 PM 39.0 °F 31.0 °F 37.9 °F 96% 29.80 in - ENE 13.8 mph - 0.02 in   Unknown